This demonstration page uses our WeatherBlox Daily Observations layout. Learn more.

Hourly Observations for June 28, 2017

Temp ( °F °C ) Dew Point ( °F °C ) Humidity (%) Winds ( mph kmh ) Pressure ( in mb ) Visibility ( mi km ) Precip ( " mm )
12:15 am 00:15 Clear 64 18 50 10 60 60 NNW 7 11 30.12 1020 10 16.09344 0 0
12:35 am 00:35 Clear 64 18 50 10 60 60 N 5 7 30.12 1020 10 16.09344 0 0
12:55 am 00:55 Clear 63 17 50 10 64 64 NNW 6 9 30.12 1020 10 16.09344 0 0
1:15 am 01:15 Clear 63 17 50 10 64 64 NNW 5 7 30.12 1020 10 16.09344 0 0
1:35 am 01:35 Clear 63 17 50 10 64 64 NNW 6 9 30.12 1020 10 16.09344 0 0
1:55 am 01:55 Clear 63 17 50 10 64 64 N 6 9 30.12 1020 10 16.09344 0 0
2:15 am 02:15 Clear 63 17 50 10 64 64 NNW 5 7 30.12 1020 10 16.09344 0 0
2:35 am 02:35 Clear 63 17 50 10 64 64 N 5 7 30.12 1020 10 16.09344 0 0
2:55 am 02:55 Clear 61 16 52 11 72 72 NW 3 6 30.12 1020 10 16.09344 0 0
3:15 am 03:15 Clear 61 16 52 11 72 72 Calm 30.15 1021 10 16.09344 0 0
3:35 am 03:35 Clear 61 16 52 11 72 72 Calm 30.15 1021 10 16.09344 0 0
3:55 am 03:55 Clear 59 15 50 10 72 72 Calm 30.15 1021 10 16.09344 0 0
4:15 am 04:15 Clear 57 14 52 11 82 82 Calm 30.15 1021 10 16.09344 0 0
4:35 am 04:35 Clear 55 13 52 11 88 88 Calm 30.15 1021 10 16.09344 0 0
4:55 am 04:55 Clear 54 12 52 11 94 94 WNW 3 6 30.15 1021 10 16.09344 0 0
5:15 am 05:15 Clear 57 14 52 11 82 82 NNW 3 6 30.15 1021 10 16.09344 0 0
5:35 am 05:35 Clear 57 14 52 11 82 82 NNW 3 6 30.15 1021 10 16.09344 0 0
5:55 am 05:55 Sunny 55 13 52 11 88 88 NNW 3 6 30.15 1021 10 16.09344 0 0
6:15 am 06:15 Sunny 57 14 52 11 82 82 Calm 30.15 1021 10 16.09344 0 0
6:35 am 06:35 Sunny 57 14 52 11 82 82 Calm 30.18 1022 10 16.09344 0 0
6:55 am 06:55 Sunny 59 15 52 11 77 77 Calm 30.18 1022 10 16.09344 0 0
7:15 am 07:15 Sunny 61 16 54 12 77 77 Calm 30.18 1022 10 16.09344 0 0
7:35 am 07:35 Sunny 63 17 54 12 73 73 Calm 30.21 1023 10 16.09344 0 0
7:55 am 07:55 Sunny 64 18 55 13 73 73 WSW 3 6 30.21 1023 10 16.09344 0 0
8:15 am 08:15 Sunny 66 19 55 13 68 68 Calm 30.21 1023 10 16.09344 0 0
8:35 am 08:35 Sunny 68 20 55 13 64 64 Calm 30.21 1023 10 16.09344 0 0
8:55 am 08:55 Sunny 70 21 55 13 60 60 W 5 7 30.21 1023 10 16.09344 0 0
9:15 am 09:15 Sunny 72 22 55 13 57 57 W 3 6 30.21 1023 10 16.09344 0 0
9:35 am 09:35 Sunny 72 22 54 12 53 53 Calm 30.21 1023 10 16.09344 0 0
9:55 am 09:55 Sunny 73 23 54 12 50 50 W 7 11 30.21 1023 10 16.09344 0 0
10:15 am 10:15 Sunny 73 23 54 12 50 50 W 5 7 30.21 1023 10 16.09344 0 0
10:35 am 10:35 Sunny 73 23 55 13 53 53 WNW 6 9 30.21 1023 10 16.09344 0 0
10:55 am 10:55 Sunny 75 24 55 13 50 50 WNW 6 9 30.21 1023 10 16.09344 0 0
11:15 am 11:15 Partly Cloudy 77 25 54 12 44 44 NNW 8 13 30.21 1023 10 16.09344 0 0
11:35 am 11:35 Partly Cloudy 77 25 52 11 42 42 NW 10 17 30.21 1023 10 16.09344 0 0
11:55 am 11:55 Partly Cloudy 77 25 50 10 39 39 W 8 13 30.21 1023 10 16.09344 0 0
12:15 pm 12:15 Partly Cloudy 77 25 50 10 39 39 NNW 5 7 30.21 1023 10 16.09344 0 0
12:35 pm 12:35 Partly Cloudy 77 25 50 10 39 39 WNW 10 17 30.21 1023 10 16.09344 0 0
12:55 pm 12:55 Sunny 77 25 50 10 39 39 NE 6 9 30.21 1023 10 16.09344 0 0
1:15 pm 13:15 Sunny 79 26 50 10 37 37 NW 6 9 30.18 1022 10 16.09344 0 0
1:35 pm 13:35 Sunny 77 25 50 10 39 39 N 7 11 30.18 1022 10 16.09344 0 0
1:55 pm 13:55 Sunny 79 26 52 11 39 39 W 5 7 30.21 1023 10 16.09344 0 0
2:15 pm 14:15 Sunny 81 27 54 12 39 39 WNW 10 17 30.18 1022 10 16.09344 0 0
2:35 pm 14:35 Sunny 81 27 52 11 37 37 SW 5 7 30.18 1022 10 16.09344 0 0
2:55 pm 14:55 Sunny 81 27 52 11 37 37 W 7 11 30.18 1022 10 16.09344 0 0
3:15 pm 15:15 Sunny 79 26 52 11 39 39 Calm 30.18 1022 10 16.09344 0 0
3:35 pm 15:35 Sunny 82 28 52 11 35 35 W 3 6 30.18 1022 10 16.09344 0 0
3:55 pm 15:55 Sunny 81 27 52 11 37 37 Calm 30.18 1022 10 16.09344 0 0
4:15 pm 16:15 Sunny 82 28 52 11 35 35 NW 3 6 30.18 1022 10 16.09344 0 0
4:35 pm 16:35 Sunny 82 28 54 12 37 37 WSW 3 6 30.15 1021 10 16.09344 0 0
4:55 pm 16:55 Sunny 81 27 52 11 37 37 NNW 3 6 30.15 1021 10 16.09344 0 0
5:15 pm 17:15 Sunny 82 28 54 12 37 37 W 7 11 30.15 1021 10 16.09344 0 0
5:35 pm 17:35 Partly Cloudy 81 27 54 12 39 39 S 8 13 30.15 1021 10 16.09344 0 0
5:55 pm 17:55 Sunny 81 27 54 12 39 39 S 6 9 30.15 1021 10 16.09344 0 0
6:15 pm 18:15 Sunny 81 27 54 12 39 39 S 7 11 30.15 1021 10 16.09344 0 0
6:35 pm 18:35 Sunny 81 27 54 12 39 39 S 6 9 30.15 1021 10 16.09344 0 0
6:55 pm 18:55 Sunny 79 26 54 12 42 42 S 8 13 30.15 1021 10 16.09344 0 0
7:15 pm 19:15 Sunny 79 26 55 13 45 45 S 3 6 30.15 1021 10 16.09344 0 0
7:35 pm 19:35 Sunny 79 26 55 13 45 45 S 3 6 30.15 1021 10 16.09344 0 0
7:55 pm 19:55 Sunny 77 25 55 13 47 47 S 5 7 30.15 1021 10 16.09344 0 0
8:15 pm 20:15 Sunny 77 25 55 13 47 47 SSW 3 6 30.15 1021 10 16.09344 0 0
8:35 pm 20:35 Sunny 75 24 57 14 54 54 S 7 11 30.15 1021 10 16.09344 0 0
8:55 pm 20:55 Clear 73 23 57 14 57 57 S 7 11 30.15 1021 10 16.09344 0 0
9:15 pm 21:15 Clear 72 22 55 13 57 57 S 6 9 30.15 1021 10 16.09344 0 0
9:35 pm 21:35 Clear 72 22 55 13 57 57 S 7 11 30.15 1021 10 16.09344 0 0
9:55 pm 21:55 Clear 73 23 55 13 53 53 S 7 11 30.15 1021 10 16.09344 0 0
10:15 pm 22:15 Clear 72 22 55 13 57 57 S 6 9 30.15 1021 10 16.09344 0 0
10:35 pm 22:35 Clear 70 21 57 14 64 64 S 6 9 30.15 1021 10 16.09344 0 0
10:55 pm 22:55 Clear 70 21 57 14 64 64 S 6 9 30.15 1021 10 16.09344 0 0
11:15 pm 23:15 Clear 70 21 57 14 64 64 SSW 7 11 30.15 1021 10 16.09344 0 0
11:35 pm 23:35 Clear 68 20 57 14 69 69 S 7 11 30.15 1021 10 16.09344 0 0
11:55 pm 23:55 Clear 68 20 57 14 69 69 SSW 6 9 30.15 1021 10 16.09344 0 0

Powered by AerisWeather